Theta_e
292 294 294 295 296 297 299 300 301 299 299 297 297 297 298 298 299 299 298 300 298 297 297 297 296 298 297 298 300 301 301 303 307 287 288 288 287 288 289 290 291 292 294
289 290 291 291 293 294 294 295 295 295 295 295 296 295 294 294 295 294 293 294 295 295 294 295 293 295 294 294 295 294 294 295 294 286 285 285 285 285 286 286 287 288 289
287 288 288 288 289 290 291 292 292 291 291 292 293 291 292 292 292 293 292 291 290 291 292 291 292 293 291 291 291 291 291 291 292 288 284 285 285 285 284 285 285 284 286
286 285 285 286 287 288 289 289 289 290 290 289 291 290 290 290 290 289 289 288 287 287 287 287 288 289 290 291 290 292 292 291 290 287 285 284 285 285 286 284 284 286 285
283 284 283 285 285 286 286 286 287 287 288 288 287 287 287 287 287 287 286 285 285 284 284 285 286 286 287 289 292 292 292 290 289 288 286 286 285 285 286 287 285 283 281
282 282 283 284 284 284 285 285 285 286 286 286 285 285 284 285 286 285 284 282 282 282 282 282 283 284 285 286 287 287 288 291 289 289 288 286 284 285 285 285 283 281 280
281 281 282 282 282 282 283 284 283 283 284 284 284 284 283 284 285 285 284 283 283 282 282 281 281 282 283 283 285 284 284 285 286 288 285 282 281 281 282 282 281 281 280
279 280 281 282 282 282 282 282 282 283 282 282 283 284 284 284 285 285 284 284 283 282 282 283 282 282 282 282 282 282 283 283 282 281 281 280 281 281 281 281 281 279 279
279 279 280 281 281 281 281 281 282 282 282 282 283 284 284 284 285 285 284 283 283 282 282 283 283 282 283 283 281 280 280 280 283 284 284 283 283 282 280 282 281 282 280
278 279 280 281 281 281 282 281 282 283 282 283 282 284 284 284 285 284 284 283 282 282 283 284 283 283 283 282 281 280 278 278 279 279 279 279 280 280 280 279 279 281 280
277 278 279 280 281 281 281 282 283 283 283 283 282 284 285 285 284 284 284 282 281 281 282 282 283 284 283 283 282 279 278 279 279 278 278 279 278 278 278 278 278 278 278
276 277 278 279 280 280 280 281 282 282 281 281 281 281 282 284 285 285 285 283 283 282 281 282 283 283 282 282 281 280 279 278 279 278 278 277 276 276 276 276 275 276 275
274 274 277 278 279 279 281 281 282 282 282 281 281 280 280 282 283 284 284 284 284 282 283 283 282 281 280 279 278 277 276 277 277 276 275 275 274 274 275 276 275 273 272
272 273 276 278 280 280 280 281 281 282 281 281 280 280 280 280 281 282 283 283 282 282 283 281 280 278 277 274 274 274 273 273 273 273 273 273 274 274 273 273 273 273 273
272 272 275 277 280 280 280 280 280 280 281 280 279 278 278 276 277 280 281 280 281 282 281 279 277 275 274 273 272 271 271 271 271 271 271 271 271 271 271 270 270 271 271
271 272 272 275 278 280 280 280 282 281 281 280 279 278 277 277 277 277 278 277 277 278 277 275 273 272 270 270 269 269 269 268 268 269 269 269 268 268 268 269 269 268 268
269 270 272 273 275 277 278 277 276 277 277 277 276 277 276 275 275 275 275 274 274 273 272 270 269 269 268 267 267 267 266 266 265 267 267 266 266 267 266 267 267 267 267
268 265 271 272 274 275 276 277 276 275 274 271 271 272 274 273 273 274 272 270 267 267 267 266 266 266 266 266 266 265 265 266 265 265 265 265 264 265 266 266 266 264 265
269 269 269 271 272 272 274 273 273 271 269 268 269 268 266 270 269 269 269 266 265 264 264 264 264 264 264 264 264 263 263 264 263 263 264 263 263 263 264 264 264 260 260
267 265 265 270 270 271 271 271 269 268 268 268 267 265 265 266 265 263 263 264 263 263 263 263 262 262 262 262 262 262 263 264 263 263 263 263 263 263 262 262 263 263 263
267 267 262 268 268 268 269 269 268 267 267 266 267 267 264 264 263 262 262 262 262 262 262 262 262 262 262 262 261 262 262 262 262 262 262 263 262 261 262 262 262 262 262
267 267 267 267 266 266 266 267 267 266 266 265 264 265 264 263 263 262 262 261 260 259 259 259 260 261 260 260 260 261 260 260 261 261 262 261 261 261 261 261 261 262 261
266 265 265 264 264 261 264 264 265 265 264 264 263 263 263 262 261 261 261 260 259 259 259 258 258 258 260 259 259 259 259 260 261 261 260 260 261 261 261 261 261 261 261
265 265 265 264 263 264 264 263 263 260 263 262 262 262 262 261 260 260 259 259 259 259 259 258 257 257 258 258 260 260 260 259 260 260 259 259 260 260 260 260 261 261 260
264 264 264 264 263 263 262 262 262 262 262 262 262 261 260 259 259 259 259 259 257 258 258 258 258 258 258 258 258 259 259 260 260 260 260 259 258 258 258 259 259 260 260
262 263 263 262 262 262 262 262 261 261 261 261 260 259 259 259 259 259 259 258 258 258 258 259 260 259 259 260 260 260 259 261 261 259 259 259 258 259 259 258 258 258 259
Wind_Speed
9 7 5 5 4 3 4 3 2 7 4 2 7 5 7 7 8 9 8 6 7 7 6 5 6 4 3 3 3 2 1 0 6 3 2 4 5 6 7 9 9 9 9
8 7 5 4 3 2 0 2 4 6 3 5 4 6 9 9 8 9 9 8 7 9 7 9 6 4 5 4 3 4 2 2 3 4 2 3 5 5 7 9 7 7 7
8 6 5 5 4 4 2 4 8 8 5 5 7 9 9 9 10 9 11 11 10 10 8 8 8 7 7 5 5 4 4 4 3 5 4 2 3 2 6 5 6 6 4
8 7 7 5 6 5 5 5 12 7 6 8 9 9 13 12 10 11 12 12 12 12 11 12 12 9 7 7 6 6 6 6 8 8 7 4 3 3 3 4 4 4 4
9 8 8 7 6 6 6 10 10 9 9 11 12 14 14 12 9 12 12 12 12 12 12 12 13 13 20 15 6 7 8 7 6 7 6 5 4 2 3 2 4 4 2
10 10 9 7 7 7 8 11 11 13 10 11 15 16 16 10 20 21 15 12 11 10 10 10 11 11 17 20 21 23 14 7 7 6 6 7 5 3 3 3 5 2 2
12 12 11 8 9 7 11 14 14 13 15 13 16 16 17 13 18 21 18 11 12 10 9 9 8 7 9 9 17 21 20 21 16 5 8 5 3 2 3 3 2 1 2
14 13 11 9 8 12 13 15 13 13 14 11 14 15 14 12 18 21 19 13 12 13 11 9 9 10 10 10 11 13 15 14 11 8 9 8 6 4 4 2 3 5 4
14 13 14 11 11 12 14 13 12 14 12 13 13 14 14 13 18 17 13 11 12 13 10 10 9 9 11 12 10 11 11 10 13 17 17 16 15 12 4 3 3 3 2
12 10 9 9 10 11 12 12 12 12 13 10 13 13 13 14 17 15 11 6 11 7 9 10 15 10 14 12 8 7 9 6 5 6 6 8 10 11 14 9 3 1 1
9 7 7 8 9 8 9 10 11 11 11 12 13 12 13 12 14 16 13 7 7 6 7 7 7 15 16 16 13 8 6 5 6 5 5 5 5 7 6 7 7 4 2
8 9 10 9 6 6 9 8 8 8 11 10 12 9 7 9 13 15 15 13 9 7 7 4 6 14 13 14 11 13 11 6 3 4 4 4 4 5 5 5 6 5 5
7 7 6 6 7 7 8 8 8 8 8 8 7 7 7 7 6 11 14 11 12 7 5 9 12 11 12 12 14 13 9 5 4 4 4 4 4 4 4 2 3 3 4
3 5 6 8 8 7 7 6 7 7 7 7 7 7 6 6 7 6 6 5 5 5 6 6 10 11 12 8 6 8 6 6 5 4 3 3 3 3 3 4 3 3 3
6 6 7 6 7 8 8 8 7 8 8 7 6 6 5 5 6 8 7 4 5 3 5 4 3 3 4 4 5 5 5 4 4 4 4 3 3 3 3 3 3 3 3
4 4 4 4 4 5 7 8 17 16 16 15 14 9 5 10 11 9 6 10 9 5 3 2 3 4 4 4 4 3 4 4 4 3 3 3 3 3 4 3 3 3 3
4 3 3 3 4 4 4 4 5 9 13 13 11 10 10 8 10 5 7 10 10 4 5 5 4 4 3 3 2 3 3 3 3 3 3 3 3 2 3 3 3 3 2
4 4 3 3 3 2 2 2 2 2 2 3 8 9 9 11 13 9 9 6 6 8 6 5 4 3 3 3 2 2 2 2 2 3 2 2 1 2 2 2 2 2 3
2 2 1 1 2 2 2 3 3 3 3 3 2 4 7 10 12 14 14 6 6 5 4 4 3 3 2 2 2 2 2 2 2 2 2 2 2 2 3 2 3 2 3
2 2 2 1 1 2 2 3 3 3 3 3 3 3 1 1 4 5 5 5 5 4 3 3 2 2 1 1 1 1 2 1 2 2 2 2 2 3 4 4 4 4 5
1 1 2 1 2 1 2 3 3 3 3 3 4 5 6 4 4 3 3 3 2 2 1 1 0 1 1 1 2 2 3 3 3 3 3 4 3 4 4 5 5 5 6
2 2 1 2 2 2 3 2 3 3 3 4 3 4 5 3 2 2 2 1 1 1 1 2 2 2 2 3 3 4 4 4 4 4 5 4 5 5 5 6 6 6 7
3 3 2 2 2 3 3 2 2 2 3 2 2 2 1 1 1 1 1 2 2 2 2 2 3 3 3 3 4 4 5 6 5 5 6 6 6 7 6 7 8 8 8
3 3 3 2 2 2 2 3 2 2 2 2 2 1 1 1 2 2 3 2 3 3 3 3 4 6 6 5 5 6 6 7 6 7 8 8 8 8 8 8 8 10 9
3 3 3 3 3 3 3 3 3 3 2 2 2 2 2 2 3 3 3 3 4 4 5 5 5 7 8 9 9 10 11 13 11 11 7 9 11 12 10 9 10 10 12
4 4 3 3 3 4 4 4 3 3 3 3 3 3 3 3 4 4 4 4 5 5 7 6 7 10 11 10 12 12 12 13 12 12 10 10 10 10 9 12 14 10 13
Wind_Direction
342 331 344 325 333 317 273 243 222 78 286 19 59 61 80 78 71 69 44 67 90 97 79 73 75 62 48 27 18 56 90 140 229 86 88 30 30 60 61 68 66 73 78
327 341 352 347 357 3 251 116 92 95 56 52 83 79 71 71 72 84 95 72 83 92 91 93 70 79 66 47 58 55 36 20 115 125 108 71 60 49 72 76 70 64 72
347 353 14 17 44 52 49 105 102 95 87 92 90 84 87 83 86 92 88 85 75 66 54 78 78 72 68 45 48 57 68 51 62 122 115 94 90 49 74 67 75 75 62
7 21 40 27 47 61 63 73 72 82 83 87 86 92 79 83 85 84 84 78 75 63 61 51 36 49 60 68 45 51 70 83 95 95 92 94 96 68 79 124 106 87 90
20 25 30 34 38 59 76 77 87 96 86 82 90 78 72 69 71 80 79 79 74 71 58 63 59 51 55 59 73 62 78 77 82 97 103 111 104 123 140 94 90 112 85
31 31 27 30 51 60 92 88 87 78 83 84 75 77 73 64 76 78 75 76 74 73 74 67 69 62 62 62 67 62 58 85 95 97 113 121 105 114 126 125 130 156 129
35 33 27 32 53 61 72 76 76 75 73 69 74 75 74 71 78 84 84 80 79 71 69 75 75 68 72 69 68 70 61 59 57 81 101 80 100 83 129 139 149 105 102
29 30 29 40 49 61 69 68 68 73 71 71 76 73 76 78 79 78 77 80 78 75 68 63 65 72 75 86 76 67 62 55 54 70 77 72 74 66 60 27 94 105 99
17 23 17 16 42 60 63 70 68 73 70 64 72 80 83 80 80 82 85 82 77 71 66 62 72 69 74 85 88 85 83 74 64 71 73 76 73 67 67 138 116 166 144
14 18 20 26 45 68 75 73 77 78 74 71 73 72 70 71 69 74 79 81 85 79 69 67 61 64 66 63 76 91 87 69 73 74 68 53 50 51 47 49 17 14 93
4 6 32 50 59 60 73 77 87 87 86 79 79 67 65 66 67 65 69 77 87 83 75 68 68 68 65 65 68 66 80 95 77 74 72 65 50 46 41 39 34 26 14
360 23 24 24 47 64 67 68 70 84 93 87 78 72 55 60 68 69 72 75 87 93 93 90 83 80 73 68 62 67 69 73 70 70 74 57 44 36 36 36 32 38 40
20 21 32 41 49 46 65 68 70 63 65 66 75 77 60 54 52 53 67 74 77 82 94 97 89 84 73 60 54 51 43 41 41 52 49 51 37 26 8 21 52 50 52
57 61 59 62 68 68 71 64 66 62 67 65 62 61 62 53 30 34 40 36 63 91 97 95 89 83 75 69 46 43 41 35 27 30 26 20 7 359 10 5 343 344 295
38 43 56 57 68 72 64 68 64 54 56 65 60 58 54 46 16 10 36 32 12 113 120 111 91 78 70 57 57 46 39 34 37 26 24 19 16 0 11 6 14 326 306
63 50 44 68 47 69 89 85 69 71 66 63 58 58 50 35 15 349 39 31 349 355 63 94 77 58 52 42 36 42 45 38 32 25 37 30 16 3 359 14 354 320 306
66 71 88 92 93 108 118 127 117 87 76 65 54 63 51 33 21 43 55 60 44 69 94 82 77 67 66 62 52 42 43 31 352 31 33 30 14 6 336 342 330 322 312
42 34 44 57 69 89 69 72 65 49 55 60 43 36 48 45 40 52 76 71 52 52 70 86 95 96 88 86 72 58 51 35 32 12 23 21 356 335 326 328 324 318 319
26 44 10 46 66 63 85 82 86 92 86 71 76 75 25 59 56 52 57 74 85 84 84 88 80 76 74 57 44 29 6 7 0 335 330 327 334 318 311 303 290 261 278
111 54 29 56 72 81 87 111 111 107 103 84 66 58 64 146 65 58 58 68 79 83 80 85 75 63 44 7 349 332 304 288 309 296 305 299 292 283 284 283 278 284 273
103 81 33 85 77 76 102 109 114 120 115 99 87 87 88 94 92 79 78 72 68 73 65 41 22 304 283 292 284 297 299 304 302 293 288 280 271 272 264 270 272 262 264
187 163 157 121 120 119 114 121 131 130 132 135 120 76 81 87 97 87 72 60 25 312 305 310 307 303 299 296 303 297 290 285 286 282 283 278 273 270 265 266 264 261 258
181 165 149 124 114 125 125 124 140 145 147 135 135 145 152 65 20 339 330 322 306 298 289 279 283 286 276 259 254 256 267 270 272 274 274 276 270 265 261 262 263 261 258
170 173 162 153 162 152 143 140 130 119 140 149 174 206 272 297 298 294 287 292 293 286 273 263 262 269 281 275 268 257 254 258 263 264 258 260 266 266 260 256 255 255 255
176 180 184 181 176 169 153 161 166 168 182 199 213 237 246 261 274 277 282 278 277 281 279 273 263 267 268 264 261 261 260 260 255 259 258 252 252 256 255 257 259 260 258
175 181 178 172 177 178 181 181 183 193 209 217 229 242 253 261 265 267 268 269 273 274 277 272 267 265 269 272 269 268 267 267 261 248 240 243 245 247 246 250 255 255 258